Regional Weather Roundup
Issued by NWS Jackson, KY

Home | Current Version | Previous Version | Graphics & Text | Print | Product List | Glossary On
Versions: 1 2 3 4 5 6 7 8 9 10 11 12 13 14 15 16 17 18 19 20 21 22 23 24 25 26 27 28 29 30 31 32 33 34 35 36 37 38 39 40 41 42 43 44 45 46 47 48 49 50
000
ASUS43 KJKL 201005
RWRJKL

EAST KENTUCKY HOURLY WEATHER ROUNDUP
NATIONAL WEATHER SERVICE JACKSON KY
600 AM EDT WED AUG 20 2014

NOTE: "FAIR" INDICATES FEW OR NO CLOUDS BELOW 12,000 FEET WITH
NO SIGNIFICANT WEATHER AND/OR OBSTRUCTIONS TO VISIBILITY.

* THESE REPORTS ARE NOT UNDER NWS QUALITY CONTROL AND MAY NOT
  REPORT WEATHER SUCH AS PRECIPITATION AND FOG.

KYZ079-080-083-085-087-088-110-112-115-119-120-201100
...EASTERN KENTUCKY...

CITY           SKY/WX    TMP DP  RH WIND       PRES   REMARKS
JACKSON        TSTM      67  65  93 VRB3      29.96R VSB 1
LONDON         PTCLDY    72  68  87 S5        29.94S
SOMERSET*      CLEAR     70  70 100 CALM      29.94R FOG
MONTICELLO*    MOCLDY    71  70  97 CALM      29.95R FOG
WILLIAMSBURG*  PTCLDY    70  70 100 CALM      29.95R
MIDDLESBORO*   CLOUDY    67  67 100 CALM      29.97R FOG
HARLAN APT*    CLOUDY    66  66 100 MISG      30.00R
BLACK MTN*       N/A     64  64 100 S3          N/A
PIKEVILLE APT* TSTM      66  64  94 E7        29.97R
BIG SANDY*     HVY RAIN  68  66  95 N7G18     29.99R
MOREHEAD APT*  CLOUDY    66  64  94 S5        29.94F
$$

KYZ035-036-041-042-044-050-067-078-099-201100
...CENTRAL KENTUCKY...

CITY           SKY/WX    TMP DP  RH WIND       PRES   REMARKS
MT STERLING*   CLOUDY    66  66 100 CALM      29.95S
FLEMING/MASON* PTCLDY    65  64  98 S5        29.92S
DANVILLE*      CLOUDY    68  66  94 E3        29.94R
RICHMOND*      CLOUDY    72  64  78 CALM      29.93R
LEXINGTON      CLOUDY    72  65  78 E6        29.93R
FRANKFORT      MOCLDY    69  65  86 S5        29.90R
$$

KYZ091>093-OHZ055-061-077-WVZ005-015-034-035-042-201100
...SOUTHERN OHIO/WEST VIRGINIA...

CITY           SKY/WX    TMP DP  RH WIND       PRES   REMARKS
COVINGTON      PTCLDY    64  62  93 CALM      29.89R FOG
COLUMBUS       CLOUDY    73  67  81 W6        29.85F
DAYTON         CLOUDY    67  62  84 SW7       29.88S
WILMINGTON     CLOUDY    64  62  93 SW5       29.89R
HUNTINGTON     LGT RAIN  66  66 100 W3        29.91F
CHARLESTON     CLOUDY    69  69 100 W5        29.94R THUNDER FOG
PINEVILLE*     FOG       69  69 100 MISG      30.04R VSB 1/2
BECKLEY        MOCLDY    63  61  93 CALM      30.03R
BLUEFIELD      PTCLDY    67  63  87 W6        30.05R
$$

VAZ002-007-008-TNZ017-027-036-066-071-201100
...SOUTHWEST VIRGINIA/EAST TENNESSEE...

CITY           SKY/WX    TMP DP  RH WIND       PRES   REMARKS
WISE*          PTCLDY    68  68 100 SW3       30.04S FOG
JONESVILLE*      N/A     66  66 100 CALM      30.01R FOG
ABINGDON*      CLEAR     67  67 100 CALM      30.02S FOG
BRISTOL        MOCLDY    66  64  93 CALM      29.99F FOG
KNOXVILLE      CLEAR     70  68  93 CALM      29.96R
OAK RIDGE      CLOUDY    72  70  93 CALM      29.97R
CROSSVILLE     PTCLDY    71  67  87 CALM      30.01R FOG
NASHVILLE      PTCLDY    78  73  84 CALM      29.92R
$$

...KEY TO REMARKS...
VSB - VISIBILITY IN MILES
WCI - WIND CHILL INDEX
HX  - HEAT INDEX

$$



USA.gov is the U.S. government's official web portal to all federal, state and local government web resources and services.